Weather History for KORF - October, 2011

Change the Weather History Date:

Tuesday, October 11, 2011

  Actual Average Record
Temperature  
Mean Temperature 70 °F 64 °F  
Max Temperature 71 °F 72 °F 88 °F (1990)
Min Temperature 68 °F 56 °F 37 °F (1906)
Degree Days  
Heating Degree Days 0 3  
Month to date heating degree days 40 27  
Since 1 July heating degree days 41 38  
Cooling Degree Days 5 2  
Month to date cooling degree days 9 32  
Year to date cooling degree days 2050 1597  
Growing Degree Days 20 (Base 50)    
Moisture  
Dew Point 66 °F    
Average Humidity 91    
Maximum Humidity 97    
Minimum Humidity 84    
Precipitation  
Precipitation T in 0.12 in 3.45 in (2002)
Month to date precipitation 0.22 1.25  
Year to date precipitation 45.79 37.95  
Snow  
Snow 0.00 in 0.00 in 0.00 in (2002)
Month to date snowfall 0.0 0.0  
Since 1 July snowfall 0.0 0.0  
Snow Depth 0.00 in    
Sea Level Pressure  
Sea Level Pressure 30.05 in    
Wind  
Wind Speed 8 mph (ENE)    
Max Wind Speed 15 mph    
Max Gust Speed 20 mph    
Visibility 8 miles    
Events Rain    
T = Trace of Precipitation, MM = Missing Value Source: NWS Daily Summary

Daily Weather History Graph

Daily Weather History Graph

Search for Another Location

Airport or City:

Trip Planner

Search our weather history database for the weather conditions in past years. The results will help you decide how hot, cold, wet, or windy it might be!

Date:

Astronomy

Oct. 11, 2011 Rise Set
Actual Time 7:08 AM EDT 6:34 PM EDT
Civil Twilight 6:42 AM EDT 7:00 PM EDT
Nautical Twilight 6:12 AM EDT 7:30 PM EDT
Astronomical Twilight 5:42 AM EDT 8:00 PM EDT
Moon 6:06 PM EDT (10/11) 6:43 AM EDT (10/11)
Length of Visible Light 12h 17m
Length of Day
11h 25m
Full, 100% of the Moon is Illuminated
Oct 11
Full
Oct 11
Full
Oct 19
Last Quarter
Oct 26
New
Nov 2
First Quarter

Hourly Weather History & Observations

Time (EDT) Temp. Dew Point Humidity Pressure Visibility Wind Dir Wind Speed Gust Speed Precip Events Conditions
12:51 AM 68.0 °F 64.9 °F 90% 30.11 in 7.0 mi NE 6.9 mph - N/A   Partly Cloudy
1:51 AM 68.0 °F 64.9 °F 90% 30.10 in 6.0 mi NE 6.9 mph - N/A   Partly Cloudy
2:51 AM 68.0 °F 64.9 °F 90% 30.09 in 8.0 mi NE 5.8 mph - N/A   Clear
3:51 AM 68.0 °F 64.9 °F 90% 30.07 in 8.0 mi NE 6.9 mph - N/A   Clear
4:51 AM 69.1 °F 64.9 °F 87% 30.08 in 9.0 mi ENE 5.8 mph - N/A   Clear
5:40 AM 68.0 °F 66.2 °F 94% 30.08 in 6.0 mi NE 5.8 mph - N/A   Overcast
5:51 AM 69.1 °F 66.0 °F 90% 30.08 in 6.0 mi ENE 6.9 mph - 0.00 in Rain Light Rain
6:51 AM 68.0 °F 66.0 °F 93% 30.08 in 7.0 mi NE 5.8 mph - 0.00 in Rain Light Rain
7:51 AM 68.0 °F 66.0 °F 93% 30.09 in 5.0 mi ENE 6.9 mph - 0.00 in Rain Light Rain
8:51 AM 68.0 °F 66.0 °F 93% 30.09 in 7.0 mi NE 8.1 mph - 0.00 in Rain Light Rain
9:51 AM 69.1 °F 64.9 °F 87% 30.10 in 7.0 mi NE 6.9 mph - 0.00 in Rain Light Rain
10:51 AM 69.1 °F 66.0 °F 90% 30.08 in 6.0 mi North 11.5 mph - 0.00 in Rain Light Rain
11:51 AM 69.1 °F 66.0 °F 90% 30.08 in 7.0 mi NE 8.1 mph - 0.00 in   Overcast
12:01 PM 69.8 °F 66.2 °F 88% 30.08 in 7.0 mi NE 10.4 mph - N/A   Overcast
12:51 PM 70.0 °F 64.9 °F 84% 30.08 in 7.0 mi NE 8.1 mph - 0.00 in Rain Light Rain
1:51 PM 69.1 °F 66.0 °F 90% 30.07 in 8.0 mi ENE 9.2 mph - 0.00 in   Mostly Cloudy
2:51 PM 71.1 °F 66.0 °F 84% 30.04 in 9.0 mi ENE 12.7 mph - N/A   Mostly Cloudy
3:51 PM 69.8 °F 64.4 °F 83% 30.03 in 10.0 mi NE 10.4 mph - N/A   Mostly Cloudy
4:51 PM 70.0 °F 66.0 °F 87% 30.01 in 9.0 mi NE 10.4 mph - N/A   Overcast
5:10 PM 69.8 °F 66.2 °F 88% 30.02 in 10.0 mi ENE 13.8 mph - N/A   Overcast
5:25 PM 69.8 °F 66.2 °F 88% 30.01 in 9.0 mi ENE 10.4 mph - N/A   Overcast
5:51 PM 70.0 °F 66.0 °F 87% 30.01 in 8.0 mi ENE 10.4 mph - N/A   Overcast
6:11 PM 69.8 °F 66.2 °F 88% 30.00 in 8.0 mi East 11.5 mph 18.4 mph N/A   Overcast
6:51 PM 69.1 °F 66.9 °F 93% 30.00 in 6.0 mi ENE 9.2 mph - N/A   Overcast
7:51 PM 70.0 °F 68.0 °F 93% 30.00 in 6.0 mi ENE 5.8 mph - N/A   Overcast
8:51 PM 71.1 °F 68.0 °F 90% 29.99 in 7.0 mi ENE 8.1 mph - N/A   Overcast
9:20 PM 71.6 °F 68.0 °F 88% 29.99 in 10.0 mi East 8.1 mph - N/A   Overcast
9:51 PM 71.1 °F 68.0 °F 90% 29.99 in 10.0 mi East 5.8 mph - N/A   Overcast
10:51 PM 71.1 °F 66.9 °F 87% 29.99 in 10.0 mi East 5.8 mph - N/A   Mostly Cloudy
11:51 PM 71.1 °F 66.9 °F 87% 29.98 in 10.0 mi East 9.2 mph - N/A   Mostly Cloudy